Change the Weather History Date:

Saturday, February 18, 2012

  Actual Average Record
Temperature  
Mean Temperature 37 °F -  
Max Temperature 45 °F 36 °F 65 °F (1981)
Min Temperature 29 °F 13 °F -25 °F (1958)
Degree Days  
Heating Degree Days 28    
Moisture  
Dew Point 22 °F    
Average Humidity 60    
Maximum Humidity 96    
Minimum Humidity 30    
Precipitation  
Precipitation 0.00 in - - ()
Sea Level Pressure  
Sea Level Pressure 29.92 in    
Wind  
Wind Speed 7 mph (West)    
Max Wind Speed 15 mph    
Max Gust Speed 23 mph    
Visibility 10 miles    
Events Rain    
Averages and records for this station are not official NWS values.
T = Trace of Precipitation, MM = Missing Value Source: NWS Daily Summary

Daily Weather History Graph

Daily Weather History Graph

Search for Another Location

Airport or City:

Trip Planner

Search our weather history database for the weather conditions in past years. The results will help you decide how hot, cold, wet, or windy it might be!

Date:

Astronomy

Feb. 18, 2012 Rise Set
Actual Time 6:39 AM EST 5:20 PM EST
Civil Twilight 6:10 AM EST 5:49 PM EST
Nautical Twilight 5:37 AM EST 6:22 PM EST
Astronomical Twilight 5:05 AM EST 6:55 PM EST
Moon 4:20 AM EST (2/18) 2:11 PM EST (2/18)
Length of Visible Light 11h 39m
Length of Day
10h 41m
Waning Crescent, 11% of the Moon is Illuminated
Feb 18
Waning Crescent
Feb 21
New
Feb 29
First Quarter
Mar 8
Full
Mar 14
Last Quarter

Hourly Weather History & Observations

Time (EST) Temp. Windchill Dew Point Humidity Pressure Visibility Wind Dir Wind Speed Gust Speed Precip Events Conditions
12:51 AM 32.9 °F 27.5 °F 22.1 °F 65% 29.91 in 10.0 mi WSW 5.8 mph - N/A   Clear
2:51 AM 29.1 °F - 22.1 °F 75% 29.92 in 10.0 mi Calm Calm - N/A   Clear
3:51 AM 32.0 °F 26.4 °F 20.1 °F 62% 29.93 in 10.0 mi West 5.8 mph - N/A   Clear
4:51 AM 32.9 °F 27.5 °F 19.0 °F 57% 29.95 in 10.0 mi West 5.8 mph - N/A   Partly Cloudy
5:51 AM 32.9 °F 27.5 °F 19.0 °F 57% 29.94 in 10.0 mi West 5.8 mph - N/A   Mostly Cloudy
6:51 AM 32.0 °F 25.6 °F 19.0 °F 59% 29.95 in 10.0 mi West 6.9 mph - N/A   Clear
7:51 AM 34.9 °F 30.8 °F 20.1 °F 55% 29.97 in 10.0 mi Variable 4.6 mph - N/A   Clear
9:51 AM 39.9 °F 32.5 °F 18.1 °F 42% 29.95 in 10.0 mi WNW 12.7 mph - N/A   Partly Cloudy
10:51 AM 41.0 °F 33.5 °F 17.1 °F 38% 29.93 in 10.0 mi WNW 13.8 mph - N/A   Clear
11:51 AM 43.0 °F 35.7 °F 16.2 °F 34% 29.90 in 10.0 mi NW 15.0 mph - N/A   Clear
12:51 PM 45.0 °F 39.7 °F 18.1 °F 34% 29.88 in 10.0 mi West 10.4 mph - N/A   Scattered Clouds
1:51 PM 45.9 °F 39.4 °F 16.2 °F 30% 29.84 in 10.0 mi WSW 15.0 mph 23.0 mph N/A   Scattered Clouds
2:51 PM 45.0 °F 39.7 °F 15.1 °F 30% 29.85 in 10.0 mi West 10.4 mph 16.1 mph N/A   Scattered Clouds
4:51 PM 43.0 °F 37.7 °F 19.0 °F 38% 29.85 in 10.0 mi West 9.2 mph 20.7 mph N/A   Mostly Cloudy
6:51 PM 36.9 °F 30.7 °F 30.0 °F 76% 29.93 in 10.0 mi WSW 8.1 mph 16.1 mph 0.00 in Rain Light Rain
7:51 PM 34.9 °F - 32.0 °F 89% 29.94 in 10.0 mi Calm Calm - 0.00 in Rain Light Rain
8:51 PM 32.9 °F - 31.1 °F 93% 29.95 in 10.0 mi Calm Calm - 0.00 in   Overcast
9:51 PM 32.9 °F 29.8 °F 30.0 °F 89% 29.95 in 10.0 mi West 3.5 mph - N/A   Partly Cloudy
10:51 PM 29.1 °F 25.4 °F 28.0 °F 96% 29.95 in 10.0 mi West 3.5 mph - N/A   Clear
11:51 PM 31.1 °F 25.4 °F 28.0 °F 88% 29.99 in 10.0 mi West 5.8 mph - N/A   Clear